Terug naar catalogus

ERS 9

LostWetenschapPO
NORAD 635·PAYLOAD·🇺🇸 United States

Gelanceerd Jul 19, 1963 vanaf Vandenberg Space Force Base

Loading…

Volgende Passages (komende 24 uur)

TLE

VerouderdSource: Space-Track

Epoch: Oct 8, 2025, 10:11 UTC

1 00635U 63030B   25281.42451812 -.00000018  00000-0 -10374-1 0  9998
2 00635  88.4228 228.9160 0044348 284.1662  75.4263  8.57948362948851

Volg ERS 9 in realtime met AllMySat

Download on the App Store